Regional Weather Roundup
Issued by NWS Wakefield, VA

Home | Current Version | Previous Version | Graphics & Text | Print | Product List | Glossary On
Versions: 1 2 3 4 5 6 7 8 9 10 11 12 13 14 15 16 17 18 19 20 21 22 23 24 25 26 27 28 29 30 31 32 33 34 35 36 37 38 39 40 41 42 43 44 45 46 47 48 49 50
000
ASUS41 KAKQ 050110
RWRAKQ

REGIONAL WEATHER ROUNDUP
NATIONAL WEATHER SERVICE WAKEFIELD VA
800 PM EST WED MAR 04 2015

Note: "fair" indicates few or no clouds below 12,000 feet with no
significant weather and/or obstructions to visibility. * = Denotes
station may not report precipitation (e.g., rain,snow,etc.),
thunder or fog.

VAZ042-051-052>054-056-050200-
NORTHERN VIRGINIA

CITY           SKY/WX    TMP DP  RH WIND       PRES   REMARKS
WASH NATIONAL  LGT RAIN  47  44  90 CALM      29.92R VSB 1/2
DULLES         RAIN      43  41  93 NW7       29.91R VSB 1/2
FORT BELVOIR   LGT RAIN  43  43 100 CALM      29.91R FOG
QUANTICO       LGT RAIN  42  40  92 CALM      29.92R VSB 1/2
FREDERICKSBRG* LGT RAIN  51  51 100 CALM      29.90R VSB 1
STAFFORD*      RAIN      47  32  55 CALM      29.94R VSB 1
WARRENTON      RAIN      44  44 100 CALM      29.90R VSB 1/2
CULPEPER*      HVY RAIN  43  43 100 CALM      29.91R VSB 1/4
MANASSAS*      NOT AVBL
LEESBURG*      RAIN      43  43 100 N3        29.93R
WINCHESTER     RAIN      45  41  87 NE5       29.92R
FRONT ROYAL*   CLOUDY    46  45  93 CALM      29.90R VSB 1/2
LURAY*         HVY RAIN  48  48 100 CALM      29.91R
$$

VAZ048-049-060>072-079>083-050200-
CENTRAL AND SOUTH CENTRAL VIRGINIA

CITY           SKY/WX    TMP DP  RH WIND       PRES   REMARKS
RICHMOND       LGT RAIN  55  51  86 N3        29.89R
CHESTERFIELD*  CLOUDY    55  45  67 CALM      29.90R
PETERSBURG*    CLOUDY    58  53  81 NE8       29.89R
HANOVER        CLOUDY    51  50  96 CALM      29.90S
TAPPAHANNOCK*  FOG       51  49  93 CALM      29.90R VSB 1/2
QUINTON*       CLOUDY    54  52  92 MISG      29.88S
CHARLOTTSVILLE LGT RAIN  45  44  97 N3        29.90R VSB 1/4
GORDONSVILLE*  FOG       42  42  99 CALM      29.90R VSB 1
ORANGE*        RAIN      45  45 100 CALM      29.92R VSB 1/2
LOUISA*        DRIZZLE   50  48  93 CALM      29.89R
BUMPASS*       CLOUDY    50  50  99 CALM      29.89R
FARMVILLE*     CLOUDY    55  50  83 CALM      29.88R
CREWE*         CLOUDY    55  51  85 CALM      29.89R
FORT PICKETT*  CLOUDY    55  52  89 CALM      29.88R
CHASE CITY*    CLOUDY    60  56  87 N6        29.87R
CLARKSVILLE*   CLOUDY    61  54  77 N6        29.86R
SOUTH HILL*    CLOUDY    60  55  84 CALM      29.92R
LAWRENCEVILLE* CLOUDY    60  56  85 N5        29.87R
EMPORIA*       CLOUDY    61  55  82 N7        29.88R
$$

VAZ088>098-050200-
SOUTHEAST VIRGINIA

CITY           SKY/WX    TMP DP  RH WIND       PRES   REMARKS
NORFOLK        PTCLDY    45  41  86 N3        29.86S
VIRGINIA BEACH MOCLDY    48  44  86 CALM      29.86F
NORFOLK NAVAL  MOCLDY    50  44  80 E5        29.88S
WEST POINT*    CLOUDY    56  52  86 NW5       29.89S
SALUDA*        CLOUDY    47  46  96 CALM      29.88S
NEWPORT NEWS   CLOUDY    53  48  83 E3        29.88R
LANGLEY AFB    CLOUDY    48  47  96 NE3       29.87R
FORT EUSTIS    CLOUDY    55  55 100 E3        29.85S
WILLIAMSBURG*  PTCLDY    55  54  94 CALM      29.88R
HR EXEC AP*    FAIR      55  52  88 CALM      29.88S
FRANKLIN*      CLOUDY    58  56  94 CALM      29.86R
WAKEFIELD      CLOUDY    58  53  84 CALM      29.87R
$$

VAZ020-022-025-037-045-050200-
WEST CENTRAL AND SOUTHWEST VIRGINIA

CITY           SKY/WX    TMP DP  RH WIND       PRES   REMARKS
STAUNTON*      RAIN      45  44  95 CALM      29.93R VSB 1/2
WAYNESBORO*    CLOUDY    46  46  99 N3        29.89R
HOT SPRINGS VA LGT RAIN  42  42 100 W12       29.87R VSB 1/4
LYNCHBURG      CLOUDY    50  48  93 CALM      29.88S
DANVILLE       CLOUDY    60  49  66 NE6       29.87R
SOUTH BOSTON*  CLOUDY    59  51  73 CALM      29.88R
MARTINSVILLE   CLOUDY    58  49  72 NE3       29.89S
ROANOKE        LGT RAIN  47  45  93 N6        29.91S
BLACKSBURG     CLOUDY    46  45  99 NW9       29.93R
DUBLIN*        RAIN      48  48 100 CALM      29.91R
MARION*        DRIZZLE   50  49  94 CALM      29.91R
HILLSVILLE*    CLOUDY    50  49  95 NE5       29.87R
RICHLANDS*     DRIZZLE   46  45  95 W7        29.93R
WISE*          HVY RAIN  43  43 100 N10       29.94R
ABINGDON*      CLOUDY    53  51  94 CALM      29.88R
$$

MDZ021>025-VAZ099-100-050200-
SOUTHERN MARYLAND AND THE DELMARVA PENINSULA

CITY           SKY/WX    TMP DP  RH WIND       PRES   REMARKS
PATUXENT RIVER LGT RAIN  45  44  97 CALM      29.89S FOG
BAY BRIDGE APT DRIZZLE   37  37 100 CALM      29.92R
LEONARDTOWN    CLOUDY    50  46  87 CALM      29.91R
DOVER          FOG       40  40 100 CALM      29.90R VSB 1/2
GEORGETOWN     FOG       45  44  97 CALM      29.89F VSB 1/4
EASTON         LGT RAIN  46  46 100 CALM      29.93  VSB 1/4
CAMBRIDGE      CLOUDY    45  41  87 CALM      29.89R VSB 3/4
SALISBURY      FOG       49  47  93 CALM      29.88F VSB 3/4
OCEAN CITY     FOG       41  41 100 CALM      29.89F VSB 1/4
WALLOPS ISLAND CLOUDY    50  50 100 N3        29.88F FOG
ACCOMACK*      CLOUDY    52  50  93 SE6       29.88S FOG
$$

NCZ012>017-030>032-050200-
NORTH CENTRAL AND EASTERN NORTH CAROLINA

CITY           SKY/WX    TMP DP  RH WIND       PRES   REMARKS
ROANOKE RAPIDS FAIR      63  57  82 CALM      29.86R
RALEIGH        MOCLDY    66  52  60 SW12      29.88R
ELIZABETH CITY PTCLDY    66  60  81 S10       29.86F
AHOSKIE*       CLEAR     65  58  75 SW3       29.87R
EDENTON*       PTCLDY    63  59  86 S12       29.87S
CURRITUCK*     PTCLDY    64  59  82 S5        29.87S
KILL DEVIL HLS PTCLDY    60  59  95 S7        29.89S
MANTEO         PTCLDY    55  54  94 S14       29.91S
CAPE HATTERAS  MOCLDY    55  55 100 SW10      29.98S FOG
TARBORO*       FAIR      71  59  64 S7        29.88R
GOLDSBORO      PTCLDY    70  69  98 S12       29.88R
WASHINGTON     PTCLDY    70  61  72 S13G22    29.90R
GREENVILLE     PTCLDY    72  63  73 SW14      29.91R
NEW BERN       PTCLDY    67  59  75 S14       29.95R
WILMINGTON     PTCLDY    66  62  87 SW16G25   29.97S
$$

VAZ048-050200-
ELSEWHERE

CITY           SKY/WX    TMP DP  RH WIND       PRES   REMARKS
HARRISBURG PA  LGT RAIN  38  36  92 NW8       29.93R
BALTIMORE      LGT RAIN  41  40  96 NW3       29.91R VSB 1
ANNAPOLIS      LGT RAIN  36  34  92 NW3       29.91R VSB 3/4
ANDREWS AFB    DRZL/FOG  45  45 100 NE2       29.90R VSB 3/4
PHILADELPHIA   LGT RAIN  41  40  96 CALM      29.92R VSB 1
HENDERSON NC   MOCLDY    69  53  57 CALM      29.87R
GREENSBORO     MOCLDY    65  56  72 SW13      29.86S
ROCKY MOUNT    PTCLDY    70  59  68 S13       29.87R
$$

VAZ100-050200-
MARINE

STATION/POSITION TIME  TEMP    WIND        PRES    WAVE   SWELL
                       AIR SEA DIR/SP/G            HT/PER HT/PER
                 (UTC) (F)     (DEG/KT/KT) (MB)    (FT/S) (FT/S)
BRANDYWINE LGT   0100   44 31  110/  7/  7 1011.9F
CAPE MAY NJ      0100   42 35   90/  5/  6 1011.5F
LEWES DE         0100   42 32  140/  3/  4 1011.9F
15NM E FENWICK I 0100   37 36              1011.8F   4/ 8
OCEAN-CITY-INLET 0100   42 33   90/  3/  4 1011.7F
WACHAPREAGUE VA  0100   44 39  210/  2/  3 1012.0F
THOMAS POINT MD  0100   40 32  360/  6/  7 1013.9R
COVE POINT MD    0100   45     260/  2/  3 1011.9R
SOLOMONS ISLAND  0100      33                N/A
BISHOPS HEAD MD  0100   37 34  130/  6/  7 1011.3R
CAMBRIDGE MD     0100   40 32  340/  2/  2 1012.1R
LEWISETTA VA     0100   45 35     CALM     1011.7R
RAPPAHANNOCK LGT 0100           60/  6/  6 1012.1F
STINGRAY PT      0100   37 33   30/  2/  4   N/A     0
YORK RVR RNG VA  0100   44     130/ 11/ 11 1010.8R
YORKTOWN VA      0100   42 35   90/  3/  6 1011.3R
DOMINION TERM VA 0100   46      60/ 12/ 15 1011.3R
KIPTOPEKE VA     0100      39   90/  9/ 12   N/A
CHES BAY BRIDGE  0100   49 34  100/ 10/ 13 1010.7F
CAPE HENRY VA    0100   49      90/ 10/ 12 1010.0F
CHESAPEAKE LGHT  0000   47      80/  4/  5 1012.5R
WILLOUBY STN VA  0100   41      90/  7/  7 1011.8R
S CRANEY ISL VA  0100           20/  3/  3 1011.0R
CAPE HENRY BUOY  0100      36                N/A     3/ 8   2/11
1ST LANDING BUOY 0100   41 35  110/  4/ 14 1010.9F   2/ 4
OFFSHORE WE BUOY 0000      37                N/A     4/ 8   3/ 8
64NM E OF VA BCH 0100   57 53  200/ 23/ 29 1011.1F   6/ 6
DUCK PIER NC     0100   60 37  190/ 16/ 21 1010.6F
44100 DUCK FRF   0000      40                N/A     4/ 8
44056 DUCK FRF   0000      37                N/A     3/10   2/11
OREGON INLET NC  0100   49 48  200/ 17/ 21 1013.3R
HATTERAS NC      0100   56 46  220/ 11/ 15 1015.2R
CAPE LOOKOUT NC  0000   61     210/ 15/ 19 1015.1F
$$



USA.gov is the U.S. government's official web portal to all federal, state and local government web resources and services.